Regional Weather Roundup
Issued by NWS

Home | Current Version | Previous Version | Graphics & Text | Print | Product List | Glossary On
Versions: 1 2 3 4 5 6 7 8 9 10 11 12 13 14 15 16 17 18 19 20 21 22 23 24 25 26 27 28 29 30 31 32 33 34 35 36 37 38 39 40 41 42 43 44 45 46 47 48 49 50
000
ASUS44 KMEG 012200
RWRTN
TENNESSEE HOURLY STATE WEATHER ROUNDUP
NATIONAL WEATHER SERVICE MEMPHIS TN
500 PM CDT WED OCT 01 2014

TNZ002-004-019-021-049-052-054-088>092-012300-
WEST TENNESSEE

CITY           SKY/WX    TMP DP  RH WIND       PRES   REMARKS
MEMPHIS INTL   CLOUDY    87  64  46 SE9       29.88S
NWS MEMPHIS      N/A     84 N/A N/A MISG        N/A
JACKSON        SUNNY     85  61  44 S5        29.89S
DYERSBURG      MOSUNNY   82  57  42 S6        29.88S
PARIS          SUNNY     84  59  42 S8        29.90S
SAVANNAH       MOSUNNY   88  55  33 S8        29.90F
$$

TNZ008-025-027-028-033-062-065-066-012300-
NORTH MIDDLE TENNESSEE

CITY           SKY/WX    TMP DP  RH WIND       PRES   REMARKS
NASHVILLE      MOSUNNY   86  55  34 E7        29.93S
CLARKSVILLE    SUNNY     86  56  35 S8        29.90F
COOKEVILLE     SUNNY     82  55  39 CALM      29.97F
CROSSVILLE     SUNNY     79  46  31 VRB3      30.02S
$$

TNZ061-075-076-078-094-096-097-012300-
SOUTH MIDDLE TENNESSEE

CITY           SKY/WX    TMP DP  RH WIND       PRES   REMARKS
SHELBYVILLE    SUNNY     88  59  37 CALM      29.95S
$$

TNZ017-018-042-046-047-012300-
NORTHEAST TENNESSEE

CITY           SKY/WX    TMP DP  RH WIND       PRES   REMARKS
TRI CITIES     MOSUNNY   80  47  31 N3        30.01S
$$

TNZ012-013-036-069-073-074-012300-
CENTRAL EAST TENNESSEE

CITY           SKY/WX    TMP DP  RH WIND       PRES   REMARKS
KNOXVILLE      MOSUNNY   82  52  35 NW5       29.98S
OAK RIDGE      SUNNY     82  48  30 CALM      30.00S
MORRISTOWN     CLEAR     79  55  44 N5        30.02R
$$

TNZ083-085-099-012300-
SOUTHEAST TENNESSEE

CITY           SKY/WX    TMP DP  RH WIND       PRES   REMARKS
CHATTANOOGA    MOSUNNY   84  56  38 E7        29.96S
$$

SKY/WX REPORTED AS FAIR MEANS FEW OR NO CLOUDS BELOW
12 THOUSAND FEET.



USA.gov is the U.S. government's official web portal to all federal, state and local government web resources and services.